When you browse on this site, cookies collect data to enhance your experience and personalize the content and advertising you see.
Visit our Privacy Policy to learn more. By continuing to use the site, you agree to this use of cookies and data.
  • Em Portugal
  • Lista de países
  • Para 7 dias
  • Temperatura da água
  • Mapas de satélite
  • Mapa do tempo
  • Widgets de tempo
  • user-avatar
    Iniciar Sessão

    Previsão horária em Boma

    Hoje, 22 Maio, Quarta-feira

    Tempo Temperatura Precipitação Vento Pressão Humidade
    00:00 +21°C° 0 mm 0 m/s 700 mmHg 89%
    01:00 +21°C° 0 mm 0 m/s 700 mmHg 91%
    02:00 +20°C° 0 mm 0 m/s 700 mmHg 93%
    03:00 +20°C° 0 mm 0 m/s 700 mmHg 94%
    04:00 +20°C° 0 mm 0 m/s 699 mmHg 96%
    05:00 +20°C° 0.3 mm 0 m/s 700 mmHg 96%
    06:00 +20°C° 0.3 mm 0 m/s 700 mmHg 95%
    07:00 +21°C° 0.3 mm 0 m/s 701 mmHg 95%
    08:00 +22°C° 0.6 mm 0 m/s 701 mmHg 92%
    09:00 +25°C° 0.6 mm 1 m/s 701 mmHg 89%
    10:00 +26°C° 0.6 mm 1 m/s 702 mmHg 86%
    11:00 +28°C° 1.1 mm 1 m/s 701 mmHg 83%
    12:00 +27°C° 1.1 mm 0 m/s 701 mmHg 80%
    13:00 +28°C° 1.1 mm 0 m/s 701 mmHg 77%
    14:00 +27°C° 0.9 mm 0 m/s 700 mmHg 75%
    15:00 +27°C° 0.9 mm 0 m/s 700 mmHg 74%
    16:00 +27°C° 0.9 mm 0 m/s 699 mmHg 72%
    17:00 +26°C° 0 mm 0 m/s 699 mmHg 77%
    18:00 +24°C° 0 mm 0 m/s 699 mmHg 83%
    19:00 +22°C° 0 mm 0 m/s 699 mmHg 88%
    20:00 +22°C° 0 mm 0 m/s 700 mmHg 89%
    21:00 +22°C° 0 mm 0 m/s 700 mmHg 90%
    22:00 +21°C° 0 mm 0 m/s 700 mmHg 91%
    23:00 +21°C° 0 mm 0 m/s 700 mmHg 93%

    Amanhã, 23 Maio, Quinta-feira

    Tempo Temperatura Precipitação Vento Pressão Humidade
    00:00 +21°C° 0 mm 0 m/s 700 mmHg 94%
    01:00 +21°C° 0 mm 0 m/s 700 mmHg 95%
    02:00 +20°C° 0.1 mm 0 m/s 700 mmHg 96%
    03:00 +20°C° 0.1 mm 0 m/s 700 mmHg 97%
    04:00 +20°C° 0.1 mm 0 m/s 699 mmHg 98%
    05:00 +20°C° 0 mm 0 m/s 700 mmHg 97%
    06:00 +21°C° 0 mm 0 m/s 700 mmHg 96%
    07:00 +21°C° 0 mm 0 m/s 700 mmHg 95%
    08:00 +23°C° 0 mm 0 m/s 701 mmHg 86%
    09:00 +25°C° 0 mm 0 m/s 701 mmHg 76%
    10:00 +27°C° 0 mm 0 m/s 702 mmHg 67%
    11:00 +29°C° 0 mm 0 m/s 702 mmHg 59%
    12:00 +31°C° 0 mm 0 m/s 701 mmHg 51%
    13:00 +33°C° 0 mm 0 m/s 701 mmHg 43%
    14:00 +34°C° 0 mm 1 m/s 700 mmHg 48%
    15:00 +32°C° 0 mm 1 m/s 699 mmHg 53%
    16:00 +31°C° 0 mm 1 m/s 699 mmHg 58%
    17:00 +29°C° 0.2 mm 1 m/s 699 mmHg 68%
    18:00 +27°C° 0.2 mm 1 m/s 699 mmHg 79%
    19:00 +23°C° 0.2 mm 0 m/s 699 mmHg 89%
    20:00 +22°C° 0 mm 0 m/s 700 mmHg 90%
    21:00 +22°C° 0 mm 0 m/s 700 mmHg 91%
    22:00 +22°C° 0 mm 0 m/s 701 mmHg 92%
    23:00 +21°C° 0 mm 0 m/s 700 mmHg 94%

    Depois de amanhã, 24 Maio, Sexta-feira

    Tempo Temperatura Precipitação Vento Pressão Humidade
    00:00 +21°C° 0 mm 0 m/s 700 mmHg 95%
    01:00 +21°C° 0 mm 0 m/s 700 mmHg 96%
    02:00 +21°C° 0 mm 0 m/s 699 mmHg 97%
    03:00 +20°C° 0 mm 0 m/s 699 mmHg 98%
    04:00 +20°C° 0 mm 0 m/s 699 mmHg 99%
    05:00 +21°C° 0 mm 0 m/s 700 mmHg 97%
    06:00 +21°C° 0 mm 0 m/s 700 mmHg 95%
    07:00 +21°C° 0 mm 0 m/s 701 mmHg 93%
    08:00 +24°C° 0 mm 0 m/s 701 mmHg 84%
    09:00 +28°C° 0 mm 1 m/s 702 mmHg 74%
    10:00 +30°C° 0 mm 1 m/s 702 mmHg 64%
    11:00 +31°C° 0 mm 1 m/s 702 mmHg 59%
    12:00 +32°C° 0 mm 1 m/s 701 mmHg 54%
    13:00 +33°C° 0 mm 1 m/s 700 mmHg 50%
    14:00 +32°C° 2.2 mm 1 m/s 700 mmHg 62%
    15:00 +30°C° 2.2 mm 1 m/s 699 mmHg 74%
    16:00 +29°C° 2.2 mm 1 m/s 698 mmHg 86%
    17:00 +27°C° 0.1 mm 1 m/s 698 mmHg 89%
    18:00 +26°C° 0.1 mm 1 m/s 699 mmHg 92%
    19:00 +25°C° 0.1 mm 1 m/s 699 mmHg 95%
    20:00 +22°C° 0.8 mm 0 m/s 699 mmHg 95%
    21:00 +22°C° 0.8 mm 0 m/s 700 mmHg 96%
    22:00 +21°C° 0.8 mm 0 m/s 700 mmHg 97%
    23:00 +21°C° 0.6 mm 0 m/s 700 mmHg 97%

    25 Maio, Sábado

    Tempo Temperatura Precipitação Vento Pressão Humidade
    00:00 +23°C° 0.6 mm 1 m/s 700 mmHg 98%
    01:00 +23°C° 0.6 mm 1 m/s 700 mmHg 98%
    02:00 +21°C° 1.1 mm 0 m/s 700 mmHg 98%
    03:00 +20°C° 1.1 mm 0 m/s 700 mmHg 98%
    04:00 +20°C° 1.1 mm 0 m/s 699 mmHg 99%
    05:00 +21°C° 0.6 mm 0 m/s 700 mmHg 98%
    06:00 +21°C° 0.6 mm 0 m/s 701 mmHg 98%
    07:00 +21°C° 0.6 mm 0 m/s 701 mmHg 98%
    08:00 +22°C° 0.7 mm 0 m/s 702 mmHg 96%
    09:00 +23°C° 0.7 mm 0 m/s 702 mmHg 95%
    10:00 +24°C° 0.7 mm 0 m/s 702 mmHg 94%
    11:00 +24°C° 1 mm 0 m/s 702 mmHg 94%
    12:00 +25°C° 1 mm 1 m/s 701 mmHg 95%
    13:00 +25°C° 1 mm 1 m/s 701 mmHg 95%
    14:00 +26°C° 0 mm 1 m/s 700 mmHg 87%
    15:00 +27°C° 0 mm 1 m/s 700 mmHg 78%
    16:00 +28°C° 0 mm 1 m/s 699 mmHg 70%
    17:00 +27°C° 0 mm 1 m/s 699 mmHg 78%
    18:00 +25°C° 0 mm 1 m/s 700 mmHg 85%
    19:00 +22°C° 0 mm 0 m/s 700 mmHg 93%
    20:00 +21°C° 0 mm 0 m/s 700 mmHg 95%
    21:00 +21°C° 0 mm 0 m/s 700 mmHg 96%
    22:00 +20°C° 0 mm 0 m/s 701 mmHg 98%
    23:00 +20°C° 0 mm 0 m/s 700 mmHg 98%

    26 Maio, Domingo

    Tempo Temperatura Precipitação Vento Pressão Humidade
    00:00 +20°C° 0 mm 0 m/s 700 mmHg 99%
    01:00 +20°C° 0 mm 0 m/s 699 mmHg 99%
    02:00 +20°C° 0 mm 0 m/s 699 mmHg 99%
    03:00 +20°C° 0 mm 0 m/s 699 mmHg 99%
    04:00 +20°C° 0 mm 0 m/s 699 mmHg 99%
    05:00 +20°C° 0 mm 0 m/s 700 mmHg 98%
    06:00 +20°C° 0 mm 0 m/s 700 mmHg 96%
    07:00 +21°C° 0 mm 0 m/s 701 mmHg 95%
    08:00 +23°C° 0 mm 0 m/s 701 mmHg 82%
    09:00 +28°C° 0 mm 1 m/s 702 mmHg 69%
    10:00 +30°C° 0 mm 1 m/s 702 mmHg 56%
    11:00 +32°C° 0 mm 1 m/s 702 mmHg 50%
    12:00 +32°C° 0 mm 0 m/s 701 mmHg 45%
    13:00 +34°C° 0 mm 0 m/s 701 mmHg 39%
    14:00 +33°C° 0 mm 0 m/s 700 mmHg 43%
    15:00 +32°C° 0 mm 0 m/s 700 mmHg 47%
    16:00 +32°C° 0 mm 1 m/s 699 mmHg 51%
    17:00 +28°C° 0 mm 0 m/s 699 mmHg 59%
    18:00 +26°C° 0 mm 0 m/s 699 mmHg 67%
    19:00 +24°C° 0 mm 0 m/s 699 mmHg 74%
    20:00 +24°C° 0 mm 0 m/s 700 mmHg 77%
    21:00 +23°C° 0 mm 0 m/s 700 mmHg 80%
    22:00 +22°C° 0 mm 0 m/s 700 mmHg 83%
    23:00 +22°C° 0 mm 0 m/s 700 mmHg 85%

    27 Maio, Segunda-feira

    Tempo Temperatura Precipitação Vento Pressão Humidade
    00:00 +21°C° 0 mm 0 m/s 700 mmHg 88%
    01:00 +21°C° 0 mm 0 m/s 699 mmHg 90%
    02:00 +21°C° 0 mm 0 m/s 699 mmHg 90%
    03:00 +21°C° 0 mm 0 m/s 699 mmHg 91%
    04:00 +20°C° 0 mm 0 m/s 699 mmHg 91%
    05:00 +21°C° 0.1 mm 0 m/s 700 mmHg 92%
    06:00 +21°C° 0.1 mm 0 m/s 700 mmHg 92%
    07:00 +21°C° 0.1 mm 0 m/s 701 mmHg 92%
    08:00 +24°C° 0 mm 0 m/s 701 mmHg 81%
    09:00 +26°C° 0 mm 0 m/s 702 mmHg 70%
    10:00 +31°C° 0 mm 1 m/s 702 mmHg 58%
    11:00 +33°C° 0.1 mm 1 m/s 702 mmHg 53%
    12:00 +34°C° 0.1 mm 1 m/s 701 mmHg 48%
    13:00 +34°C° 0.1 mm 0 m/s 701 mmHg 43%
    14:00 +34°C° 0.3 mm 1 m/s 700 mmHg 50%
    15:00 +33°C° 0.3 mm 1 m/s 700 mmHg 57%
    16:00 +31°C° 0.3 mm 1 m/s 699 mmHg 63%
    17:00 +29°C° 0.5 mm 1 m/s 699 mmHg 73%
    18:00 +27°C° 0.5 mm 1 m/s 699 mmHg 82%
    19:00 +25°C° 0.5 mm 1 m/s 699 mmHg 91%
    20:00 +24°C° 0.3 mm 1 m/s 700 mmHg 93%
    21:00 +24°C° 0.3 mm 1 m/s 700 mmHg 95%
    22:00 +23°C° 0.3 mm 1 m/s 700 mmHg 97%
    23:00 +23°C° 0 mm 1 m/s 700 mmHg 98%
    Mostrar mais